CAPE
nan nan nan nan nan 0 nan nan nan nan nan 0 nan nan 1 16 8 8 27 18 18 4 2 1 1 1 17 87 138 138 173 209 230 230 244 253 263 263 265 287 287 311 337 331 331 300 263 237 237 196 163 128 115 115 117 130 130 129 124 124 124 147 188 231 231 244 226 232 266 266 269 251 221 221 184 147 117 117 98 114 114 254 291 271 271 229
nan nan 0 0 0 0 nan 0 0 0 0 1 1 1 1 1 3 3 15 19 19 6 3 2 2 2 4 49 127 127 163 199 221 221 246 257 269 269 278 297 297 317 334 320 320 286 251 213 213 168 126 98 88 88 93 103 103 104 105 113 113 148 180 208 208 226 231 228 250 250 259 247 217 217 183 151 130 130 118 101 101 137 187 217 217 201
nan 0 0 0 0 0 0 0 1 1 2 5 4 4 2 3 2 2 4 15 15 20 12 4 4 7 10 45 133 133 158 190 220 220 246 259 280 280 295 313 313 325 327 312 312 262 215 160 160 123 97 82 79 79 76 84 84 79 84 89 89 123 152 170 170 209 229 234 222 222 215 219 209 209 163 149 133 133 113 107 107 86 95 153 153 166
0 0 0 1 1 1 0 0 0 0 4 8 6 6 4 2 2 2 4 8 8 21 22 16 16 13 15 40 112 112 156 189 220 220 250 272 294 294 303 317 317 315 297 262 262 223 169 131 131 106 90 84 74 74 73 73 73 65 64 68 68 95 121 146 146 197 226 236 207 207 183 185 180 180 149 120 118 118 104 100 100 95 86 103 103 147
1 0 0 1 1 1 1 1 2 2 5 6 3 3 3 2 2 2 5 11 11 17 17 26 26 19 19 29 88 88 152 191 221 221 257 284 297 297 299 301 301 268 248 214 214 178 146 119 119 104 89 81 75 75 74 74 74 66 51 65 65 86 112 157 157 193 212 213 189 189 163 155 155 155 128 113 112 112 108 106 106 104 110 79 79 98
1 0 2 0 0 nan 0 2 5 5 12 6 6 6 5 3 3 3 7 9 9 8 15 21 21 25 18 20 96 96 158 194 229 229 258 275 292 292 281 259 259 229 207 182 182 154 138 117 117 101 93 83 79 79 77 78 78 62 47 59 59 92 142 177 177 197 199 196 178 178 153 139 133 133 112 105 110 110 112 104 104 113 127 95 95 64
2 1 3 nan nan 0 1 2 5 5 3 3 6 6 6 6 5 5 6 8 8 6 5 11 11 26 31 61 122 122 165 191 224 224 244 254 257 257 233 221 221 199 181 166 166 146 132 120 120 105 95 89 80 80 80 72 72 55 45 62 62 109 159 172 172 179 166 164 158 158 140 127 116 116 104 99 104 104 105 103 103 119 135 120 120 53
nan 2 1 nan nan nan nan 1 5 5 4 1 3 3 4 4 4 4 14 22 22 27 30 33 33 33 39 54 68 68 59 41 59 59 96 107 133 133 137 150 150 151 149 149 149 133 125 114 114 99 90 85 77 77 71 67 67 59 55 69 69 91 97 103 103 110 111 113 124 124 121 112 102 102 90 87 92 92 97 99 99 109 120 119 119 74
0 0 2 3 3 nan nan 4 11 11 6 2 3 3 1 3 5 5 12 12 12 13 17 25 25 37 44 51 47 47 77 79 53 53 60 33 42 42 91 130 130 135 138 134 134 123 111 98 98 88 80 75 70 70 65 62 62 63 58 64 64 65 66 76 76 85 85 93 106 106 115 106 100 100 93 90 93 93 91 94 94 98 107 101 101 71
5 4 0 3 3 1 nan 3 6 6 12 9 13 13 6 5 5 5 5 1 1 12 26 27 27 46 49 45 50 50 57 80 146 146 168 109 156 156 112 89 89 81 109 109 109 103 93 82 82 75 71 67 62 62 57 59 59 59 54 54 54 52 52 57 57 66 71 72 88 88 100 99 100 100 94 91 89 89 85 89 89 89 90 83 83 60
1 1 nan 0 0 2 4 6 8 8 13 13 12 12 14 10 1 1 5 27 27 37 34 31 31 33 52 55 59 59 52 45 56 56 94 100 108 108 95 85 85 87 87 83 83 78 70 67 67 62 62 57 53 53 48 49 49 48 45 47 47 43 42 45 45 52 52 53 66 66 82 90 94 94 93 88 80 80 75 80 80 84 80 73 73 56
0 0 nan 0 0 2 5 4 8 8 10 10 13 13 27 39 17 17 20 28 28 34 27 30 30 36 49 58 64 64 59 52 33 33 27 30 37 37 38 33 33 42 47 49 49 53 58 54 54 52 48 46 49 49 43 37 37 41 39 41 41 38 33 33 33 37 37 39 50 50 63 80 87 87 85 81 73 73 68 70 70 73 74 68 68 57
7 0 nan 0 0 1 0 2 9 9 12 6 6 6 21 28 30 30 23 20 20 28 27 21 21 36 52 65 65 65 63 54 35 35 24 19 19 19 16 14 14 12 14 14 14 15 34 43 43 42 39 38 38 38 37 36 36 36 37 38 38 33 26 25 25 30 29 29 37 37 49 62 70 70 72 71 65 65 63 63 63 66 68 67 67 60
10 nan nan nan nan nan 1 2 8 8 1 5 8 8 17 21 26 26 23 27 27 28 29 27 27 29 45 55 65 65 58 40 26 26 18 17 24 24 21 17 17 13 12 9 9 11 25 24 24 15 30 26 22 22 22 29 29 34 36 38 38 31 25 24 24 27 27 28 33 33 41 49 52 52 57 64 60 60 60 55 55 49 61 64 64 63
6 18 31 24 24 25 13 1 3 3 2 5 10 10 17 22 27 27 15 21 21 30 33 28 28 35 38 42 42 42 41 30 21 21 19 20 25 25 23 16 16 15 14 11 11 13 28 23 23 12 9 9 7 7 13 20 20 33 36 39 39 37 29 28 28 29 33 30 31 31 33 35 35 35 42 54 59 59 55 46 46 34 47 58 58 62
29 50 38 33 33 23 10 3 0 0 1 5 10 10 12 20 35 35 22 14 14 25 32 39 39 34 29 27 29 29 32 30 26 26 23 21 24 24 23 17 17 14 12 10 10 13 17 14 14 11 8 16 21 21 19 26 26 35 41 47 47 45 37 35 35 33 34 31 28 28 30 29 25 25 28 40 50 50 48 37 37 25 30 49 49 60
43 39 26 17 17 16 12 5 1 1 1 4 8 8 12 23 32 32 13 22 22 22 30 27 27 27 16 23 30 30 37 36 31 31 25 23 18 18 29 21 21 17 13 13 13 11 13 10 10 12 11 24 27 27 25 30 30 36 47 55 55 53 45 39 39 36 34 33 29 29 35 27 22 22 21 28 40 40 41 30 30 16 16 41 41 57
42 29 17 12 12 10 11 5 5 5 4 3 7 7 14 23 24 24 15 15 15 23 30 35 35 25 15 21 28 28 35 38 37 37 27 27 25 25 34 27 27 18 16 17 17 11 13 15 15 20 21 38 33 33 30 35 35 41 49 60 60 59 49 42 42 37 33 33 31 31 30 28 21 21 19 22 30 30 35 27 27 13 10 29 29 51
33 28 16 6 6 5 4 7 6 6 1 4 16 16 22 26 21 21 13 18 18 22 24 23 23 20 17 16 30 30 42 34 42 42 30 34 25 25 29 24 24 22 21 22 22 20 17 20 20 38 45 45 38 38 36 38 38 44 54 63 63 61 53 41 41 35 31 31 31 31 30 28 22 22 18 20 26 26 31 25 25 11 8 23 23 43
30 12 8 3 3 3 5 10 6 6 2 14 19 19 25 26 24 24 15 16 16 19 22 25 25 24 19 25 36 36 48 45 44 44 41 29 27 27 31 23 23 23 19 19 19 18 18 20 20 35 49 48 41 41 37 39 39 45 53 59 59 63 56 45 45 37 30 27 27 27 27 26 23 23 20 21 24 24 28 25 25 13 8 22 22 38
16 6 6 4 4 4 3 7 14 14 24 27 17 17 22 23 18 18 20 24 24 23 30 32 32 29 27 32 43 43 55 51 43 43 42 31 28 28 25 22 22 20 22 20 20 18 16 19 19 31 40 49 48 48 42 38 38 44 51 60 60 61 54 45 45 36 29 25 24 24 25 26 25 25 22 21 25 25 27 24 24 13 11 24 24 39
9 5 7 8 8 3 7 9 38 38 42 28 12 12 20 18 18 18 27 30 30 39 50 50 50 42 47 45 49 49 57 48 39 39 30 23 24 24 17 18 18 21 23 20 20 18 19 24 24 25 41 59 54 54 46 39 39 39 47 55 55 59 55 45 45 34 27 24 22 22 24 24 24 24 22 21 23 23 27 23 23 15 14 28 28 39
13 9 8 7 7 3 10 15 29 29 41 21 23 23 10 14 22 22 33 34 34 36 42 44 44 52 55 51 51 51 50 42 33 33 27 21 24 24 20 15 15 24 27 21 21 20 25 23 23 26 44 63 56 56 46 40 40 37 39 46 46 52 51 43 43 32 26 23 22 22 21 22 22 22 20 20 21 21 24 22 22 14 19 36 36 40
13 12 10 12 12 14 18 20 20 20 21 13 7 7 13 11 13 13 18 23 23 32 35 37 37 40 43 41 33 33 35 41 39 39 34 29 28 28 24 20 20 27 27 29 29 28 30 23 23 26 34 55 53 53 44 35 35 32 34 40 40 47 50 43 43 34 27 23 22 22 22 23 20 20 18 19 20 20 19 17 17 16 23 36 36 38
13 14 12 6 6 23 21 19 40 40 32 23 17 17 18 23 31 31 25 29 29 35 39 39 39 34 31 38 24 24 28 29 31 31 30 30 23 23 21 20 20 22 25 26 26 26 25 25 25 29 28 35 44 44 36 29 29 27 31 41 41 47 49 48 48 39 33 28 26 26 24 22 21 21 20 19 19 19 17 16 16 16 25 37 37 40
32 29 27 47 47 94 125 144 143 143 109 37 15 15 18 19 19 19 18 26 26 33 34 32 32 27 23 22 24 24 22 26 27 27 29 20 18 18 14 15 15 19 25 24 24 28 24 25 25 22 16 17 31 31 29 25 25 27 33 38 38 46 48 46 46 42 34 29 28 28 27 25 21 21 19 19 17 17 15 14 14 16 25 32 32 30
71 84 104 119 119 122 125 125 140 140 158 116 34 34 23 17 15 15 19 22 22 29 33 27 27 23 22 21 16 16 18 23 23 23 23 20 16 16 11 11 11 14 22 23 23 21 25 20 20 13 12 5 15 15 24 25 25 29 33 34 34 39 44 44 44 40 34 27 25 25 25 23 23 23 19 19 17 17 14 12 12 16 24 26 26 28
74 79 85 91 91 92 97 108 118 118 124 115 112 112 52 16 12 12 15 14 14 23 24 18 18 15 14 11 9 9 9 16 19 19 21 18 14 14 9 10 10 14 16 18 18 18 28 17 17 9 6 3 5 5 19 26 26 28 27 29 29 31 37 40 40 39 32 26 24 24 24 22 22 22 20 18 17 17 13 12 12 16 24 22 22 18
63 70 71 71 71 71 78 87 90 90 84 73 78 78 49 12 9 9 12 14 14 17 20 17 17 13 10 10 8 8 8 12 12 12 14 14 13 13 9 10 10 15 14 15 15 13 14 11 11 8 8 12 12 12 20 24 24 21 25 26 26 30 34 37 37 39 34 33 29 29 28 27 25 25 21 19 17 17 14 11 11 15 20 19 19 16
32 37 37 39 39 47 49 33 41 41 51 57 60 60 44 12 10 10 9 15 15 18 18 18 18 15 14 12 10 10 10 10 9 9 12 12 12 12 9 12 12 14 15 16 16 10 7 8 8 10 14 21 14 14 13 17 17 17 21 24 24 22 26 29 29 30 32 32 31 31 32 30 32 32 26 24 18 18 14 12 12 15 18 17 17 15
4 4 3 7 7 15 15 9 18 18 39 49 48 48 35 13 7 7 16 19 19 19 20 19 19 17 17 14 9 9 8 6 11 11 10 16 16 16 15 14 14 17 17 16 16 10 7 4 4 10 16 17 14 14 13 9 9 11 11 12 12 15 18 19 19 24 24 25 27 27 27 29 31 31 28 26 21 21 17 16 16 17 19 15 15 12
0 0 2 3 3 5 5 5 5 5 6 6 4 4 10 11 12 12 14 18 18 25 27 22 22 22 20 20 15 15 12 11 16 16 19 13 16 16 14 12 12 14 14 18 18 17 7 9 9 6 5 6 4 4 4 4 4 6 6 7 7 7 14 16 16 16 15 17 15 15 17 17 19 19 21 23 24 24 23 22 22 22 16 11 11 9
1 2 4 6 6 8 9 7 6 6 8 6 4 4 2 3 9 9 9 16 16 25 24 22 22 19 15 15 15 15 12 11 24 24 32 18 15 15 16 14 14 17 16 15 15 17 12 11 11 10 8 6 5 5 5 5 5 6 7 8 8 8 15 17 17 16 17 16 18 18 18 17 19 19 19 19 21 21 21 22 22 20 19 12 12 8
3 6 6 7 7 11 10 7 6 6 7 6 5 5 3 1 1 1 4 10 10 19 19 18 18 16 13 9 12 12 9 10 27 27 29 23 20 20 19 15 15 14 17 13 13 14 12 14 14 13 9 7 5 5 5 5 5 7 9 10 10 10 13 16 16 17 19 18 18 18 17 17 21 21 17 17 17 17 17 18 18 20 20 16 16 8
3 5 6 10 10 13 10 8 8 8 8 6 4 4 1 0 nan nan 0 5 5 13 19 21 21 19 15 8 10 10 8 6 23 23 32 26 22 22 18 18 18 13 14 14 14 15 14 13 13 15 12 8 3 3 3 5 5 8 9 12 12 11 13 18 18 20 19 17 17 17 17 18 17 17 15 14 13 13 12 13 13 15 19 18 18 13
3 5 10 12 12 15 9 8 6 6 6 4 1 1 0 0 nan nan nan 2 2 11 22 20 20 23 17 12 8 8 8 9 24 24 34 23 17 17 20 19 19 17 12 13 13 17 15 12 12 16 15 10 5 5 2 5 5 8 8 10 10 12 15 20 20 19 17 15 14 14 15 16 17 17 16 16 15 15 13 11 11 12 14 18 18 16
5 8 12 14 14 12 10 3 3 3 3 3 1 1 0 nan nan nan nan 1 1 5 10 25 25 24 32 14 15 15 12 11 18 18 33 27 21 21 16 18 18 20 12 13 13 14 15 13 13 11 9 8 6 6 4 4 4 4 4 7 7 9 9 14 14 17 15 14 12 12 13 13 13 13 12 16 16 16 14 12 12 11 11 12 12 15
5 8 13 12 12 11 7 3 2 2 2 2 2 2 0 nan nan nan nan 0 0 3 5 7 7 9 29 36 23 23 17 16 17 17 23 23 21 21 19 16 16 18 17 16 16 13 12 12 12 9 7 5 7 7 7 5 5 6 5 5 5 5 6 9 9 10 11 13 13 13 12 12 11 11 9 9 9 9 9 7 7 8 8 9 9 12
7 9 12 14 14 12 7 3 2 2 2 2 2 2 0 nan 0 0 nan nan nan 1 2 5 5 6 10 17 29 29 27 15 13 13 15 16 14 14 17 18 18 18 16 19 19 15 13 11 11 8 7 5 5 5 4 5 5 6 6 5 5 3 4 6 6 9 10 13 12 12 12 14 12 12 8 6 4 4 4 4 4 5 4 4 4 5
8 12 10 13 13 9 7 5 1 1 0 3 3 3 0 nan nan nan nan nan nan nan 1 4 4 7 12 20 24 24 26 22 23 23 14 14 13 13 16 18 18 19 19 17 17 15 17 12 12 10 10 7 5 5 6 6 6 7 10 5 5 2 3 5 5 8 8 10 11 11 13 16 16 16 10 7 3 3 1 0 0 1 1 0 0 nan
9 10 7 8 8 10 11 5 1 1 0 1 0 0 nan nan nan nan nan nan nan nan 0 4 4 8 9 10 14 14 17 23 25 25 16 17 22 22 20 20 20 19 18 16 16 17 20 13 13 10 10 8 9 9 8 6 6 11 13 6 6 4 3 5 5 4 6 7 9 9 12 13 13 13 15 11 5 5 1 nan nan nan 0 nan nan nan
12 10 6 8 8 9 8 5 4 4 2 0 0 0 nan nan nan nan nan nan nan nan nan 0 0 3 6 6 8 8 10 15 23 23 25 23 22 22 21 21 21 20 19 20 20 20 19 16 16 15 12 7 7 7 6 5 5 9 11 7 7 5 6 4 4 3 5 6 9 9 11 11 12 12 14 14 10 10 4 0 0 nan nan nan nan nan
6 6 6 11 11 12 13 10 6 6 2 0 nan nan nan nan nan nan nan nan nan nan nan nan nan 1 2 4 3 3 5 12 16 16 20 19 21 21 22 19 19 17 16 16 16 18 19 18 18 14 12 8 7 7 6 6 6 6 8 10 10 8 4 1 1 2 5 6 9 9 13 16 14 14 16 16 14 14 6 0 0 nan nan nan nan nan
6 7 8 11 11 15 12 9 4 4 2 0 0 0 nan nan nan nan nan nan nan nan nan nan nan nan 0 1 2 2 3 5 12 12 15 26 23 23 18 21 21 18 14 15 15 17 17 17 17 14 11 10 9 9 8 6 6 6 6 10 10 8 4 2 2 2 5 7 10 10 17 22 26 26 24 21 18 18 7 0 0 nan nan nan nan nan
12 9 12 14 14 12 11 7 4 4 3 2 1 1 nan nan 0 0 nan nan nan nan nan nan nan nan nan nan 1 1 2 3 6 6 9 24 46 46 33 25 25 21 17 15 15 13 14 16 16 13 11 12 11 11 10 7 7 6 8 9 9 9 5 3 3 3 3 4 7 7 13 23 29 29 25 20 14 14 7 2 2 nan nan nan nan nan
12 15 11 8 8 8 8 7 5 5 4 3 1 1 0 0 nan nan nan nan nan nan nan nan nan nan nan nan nan nan 0 2 3 3 4 9 16 16 24 33 33 27 20 18 18 18 15 13 13 14 15 17 14 14 10 8 8 7 9 9 9 9 7 5 5 5 4 3 4 4 6 15 17 17 15 17 16 16 13 6 6 1 nan nan nan 1
6 5 6 6 6 7 7 7 6 6 4 4 2 2 0 0 0 0 0 nan nan nan nan nan nan nan nan nan nan nan nan 1 1 1 4 5 9 9 13 19 19 30 32 28 28 25 22 17 17 15 14 15 11 11 9 8 8 8 10 8 8 9 8 4 4 5 5 4 2 2 4 10 10 10 12 16 17 17 13 13 13 6 1 3 3 9
9 7 6 7 7 6 6 6 4 4 4 4 3 3 2 0 0 0 0 nan nan nan nan nan nan nan nan nan nan nan nan 0 1 1 4 5 7 7 9 11 11 18 31 38 38 40 36 29 29 24 17 13 9 9 6 8 8 8 10 9 9 8 7 5 5 4 5 5 7 7 7 8 11 11 13 16 16 16 10 10 10 7 3 12 12 25
5 5 7 7 7 7 7 6 6 6 5 3 3 3 2 3 8 8 0 nan nan nan nan nan nan nan nan nan nan nan 0 1 0 0 1 3 5 5 8 11 11 14 16 24 24 29 35 42 42 37 24 15 9 9 5 5 5 7 8 8 8 10 8 5 5 5 5 8 14 14 11 9 12 12 16 13 10 10 11 8 8 4 2 18 18 40
3 4 7 10 10 9 8 6 7 7 5 5 4 4 2 1 1 1 nan nan nan nan nan nan nan nan nan nan nan nan nan nan nan nan 0 1 6 6 7 9 9 12 12 14 14 16 19 31 31 41 47 25 11 11 5 5 5 6 7 8 8 9 9 6 6 3 5 7 15 15 16 13 13 13 14 13 9 9 11 9 9 7 5 9 9 36
4 3 5 8 8 13 10 8 9 9 9 6 5 5 2 1 0 0 nan nan nan nan nan nan nan nan nan nan nan nan nan nan 0 0 nan 1 4 4 7 8 8 8 10 11 11 11 14 15 15 19 36 50 26 26 5 5 5 5 6 8 8 8 8 7 7 5 6 7 11 11 19 15 12 12 9 8 11 11 12 11 11 7 10 6 6 31
CIN
nan nan nan nan nan -0 nan nan nan nan nan -0 nan nan -0 -0 -0 -0 -0 -0 -0 -0 -0 -0 -0 -0 -0 -0 -0 -0 -0 -0 -0 -0 -0 -0 -0 -0 -0 -0 -0 -0 -0 -0 -0 -0 -0 -0 -0 -0 -0 -0 -0 -0 -0 -0 -0 -0 -0 -0 -0 -0 -0 -0 -0 -0 -0 -0 -0 -0 -0 -0 -0 -0 -0 -0 -0 -0 -0 -0 -0 -0 -0 -0 -0 -0
nan nan -0 -0 -0 -0 nan -0 -0 -0 -0 -0 -0 -0 -0 -0 -0 -0 -0 -0 -0 -0 -0 -0 -0 -0 -0 -0 -0 -0 -0 -0 -0 -0 -0 -0 -0 -0 -0 -0 -0 -0 -0 -0 -0 -0 -0 -0 -0 -0 -0 -0 -0 -0 -0 -0 -0 -0 -0 -0 -0 -0 -0 -0 -0 -0 -0 -0 -0 -0 -0 -0 -0 -0 -0 -0 -0 -0 -0 -0 -0 -0 -0 -0 -0 -0
nan -0 -0 -0 -0 -0 -0 -0 -0 -0 -0 -0 -0 -0 -0 -0 -0 -0 -0 -0 -0 -0 -0 -0 -0 -0 -0 -0 -0 -0 -0 -0 -0 -0 -0 -0 -0 -0 -0 -0 -0 -0 -0 -0 -0 -0 -0 -0 -0 -0 -0 -0 -0 -0 -0 -0 -0 -0 -0 -0 -0 -0 -0 -0 -0 -0 -0 -0 -0 -0 -0 -0 -0 -0 -0 -0 -0 -0 -0 -0 -0 -0 -0 -0 -0 -0
-0 -0 -0 -0 -0 -0 -0 -0 -0 -0 -0 -0 -0 -0 -0 -0 -0 -0 -0 -0 -0 -0 -0 -0 -0 -0 -0 -0 -0 -0 -0 -0 -0 -0 -0 -0 -0 -0 -0 -0 -0 -0 -0 -0 -0 -0 -0 -0 -0 -0 -0 -0 -0 -0 -0 -0 -0 -0 -0 -0 -0 -0 -0 -0 -0 -0 -0 -0 -0 -0 -0 -0 -0 -0 -0 -0 -0 -0 -0 -0 -0 -0 -0 -0 -0 -0
-0 -0 -0 -0 -0 -0 -0 -0 -0 -0 -0 -0 -0 -0 -0 -0 -0 -0 -0 -0 -0 -0 -0 -0 -0 -0 -0 -0 -0 -0 -0 -0 -0 -0 -0 -0 -0 -0 -0 -0 -0 -0 -0 -0 -0 -0 -0 -0 -0 -0 -0 -0 -0 -0 -0 -0 -0 -0 -0 -0 -0 -0 -0 -0 -0 -0 -0 -0 -0 -0 -0 -0 -0 -0 -0 -0 -0 -0 -0 -0 -0 -0 -0 -0 -0 -0
-0 -0 -0 -0 -0 nan -0 -0 -0 -0 -0 -0 -0 -0 -0 -0 -0 -0 -0 -0 -0 -0 -0 -0 -0 -0 -0 -0 -0 -0 -0 -0 -0 -0 -0 -0 -0 -0 -0 -0 -0 -0 -0 -0 -0 -0 -0 -0 -0 -0 -0 -0 -0 -0 -0 -0 -0 -0 -0 -0 -0 -0 -0 -0 -0 -0 -0 -0 -0 -0 -0 -0 -0 -0 -0 -0 -0 -0 -0 -0 -0 -0 -0 -0 -0 -0
-0 -0 -0 nan nan -0 -0 -0 -0 -0 -0 -0 -0 -0 -0 -0 -0 -0 -0 -0 -0 -0 -0 -0 -0 -0 -0 -0 -0 -0 -0 -0 -0 -0 -0 -0 -0 -0 -0 -0 -0 -0 -0 -0 -0 -0 -0 -0 -0 -0 -0 -0 -0 -0 -0 -0 -0 -0 -0 -0 -0 -0 -0 -0 -0 -0 -0 -0 -0 -0 -0 -0 -0 -0 -0 -0 -0 -0 -0 -0 -0 -0 -0 -0 -0 -0
nan -0 -0 nan nan nan nan -0 -0 -0 -0 -0 -0 -0 -0 -0 -0 -0 -0 -0 -0 -0 -0 -0 -0 -0 -0 -0 -0 -0 -0 -0 -0 -0 -0 -0 -0 -0 -0 -0 -0 -0 -0 -0 -0 -0 -0 -0 -0 -0 -0 -0 -0 -0 -0 -0 -0 -0 -0 -0 -0 -0 -0 -0 -0 -0 -0 -0 -0 -0 -0 -0 -0 -0 -0 -0 -0 -0 -0 -0 -0 -0 -0 -0 -0 -0
-0 -0 -0 -0 -0 nan nan -0 -0 -0 -0 -0 -0 -0 -0 -0 -0 -0 -0 -0 -0 -0 -0 -0 -0 -0 -0 -0 -0 -0 -0 -0 -0 -0 -0 -0 -0 -0 -0 -0 -0 -0 -0 -0 -0 -0 -0 -0 -0 -0 -0 -0 -0 -0 -0 -0 -0 -0 -0 -0 -0 -0 -0 -0 -0 -0 -0 -0 -0 -0 -0 -0 -0 -0 -0 -0 -0 -0 -0 -0 -0 -0 -0 -0 -0 -0
-0 -0 -0 -0 -0 -0 nan -0 -0 -0 -0 -0 -0 -0 -0 -0 -0 -0 -0 -0 -0 -0 -0 -0 -0 -0 -0 -0 -0 -0 -0 -0 -0 -0 -0 -0 -0 -0 -0 -0 -0 -0 -0 -0 -0 -0 -0 -0 -0 -0 -0 -0 -0 -0 -0 -0 -0 -0 -0 -0 -0 -0 -0 -0 -0 -0 -0 -0 -0 -0 -0 -0 -0 -0 -0 -0 -0 -0 -0 -0 -0 -0 -0 -0 -0 -0
-0 -0 nan -0 -0 -0 -0 -0 -0 -0 -0 -0 -0 -0 -0 -0 -0 -0 -0 -0 -0 -0 -0 -0 -0 -0 -0 -0 -0 -0 -0 -0 -0 -0 -0 -0 -0 -0 -0 -0 -0 -0 -0 -0 -0 -0 -0 -0 -0 -0 -0 -0 -0 -0 -0 -0 -0 -0 -0 -0 -0 -0 -0 -0 -0 -0 -0 -0 -0 -0 -0 -0 -0 -0 -0 -0 -0 -0 -0 -0 -0 -0 -0 -0 -0 -0
-0 -0 nan -0 -0 -0 -0 -0 -0 -0 -0 -0 -0 -0 -0 -0 -3 -3 -0 -0 -0 -0 -0 -0 -0 -0 -0 -0 -0 -0 -0 -0 -0 -0 -0 -0 -0 -0 -0 -0 -0 -0 -0 -0 -0 -0 -0 -0 -0 -0 -0 -0 -0 -0 -0 -0 -0 -0 -0 -0 -0 -0 -0 -0 -0 -0 -0 -0 -0 -0 -0 -0 -0 -0 -0 -0 -0 -0 -0 -0 -0 -0 -0 -0 -0 -0
-0 -2 nan -0 -0 -0 -1 -0 -0 -0 -0 -0 -0 -0 -0 -0 -1 -1 -0 -0 -0 -0 -0 -0 -0 -0 -0 -0 -0 -0 -0 -0 -0 -0 -0 -0 -0 -0 -0 -0 -0 -0 -0 -0 -0 -0 -0 -0 -0 -0 -0 -0 -0 -0 -0 -0 -0 -0 -0 -0 -0 -0 -0 -0 -0 -0 -0 -0 -0 -0 -0 -0 -0 -0 -0 -0 -0 -0 -0 -0 -0 -0 -0 -0 -0 -0
-1 nan nan nan nan nan -0 -0 -0 -0 -1 -0 -1 -1 -0 -0 -0 -0 -0 -0 -0 -0 -0 -0 -0 -0 -0 -0 -0 -0 -0 -0 -0 -0 -0 -0 -0 -0 -0 -0 -0 -0 -0 -0 -0 -0 -0 -0 -0 -0 -0 -0 -0 -0 -0 -0 -0 -0 -0 -0 -0 -0 -0 -0 -0 -0 -0 -0 -0 -0 -0 -0 -0 -0 -0 -0 -0 -0 -0 -0 -0 -0 -0 -0 -0 -0
-6 -5 -1 -2 -2 -0 -1 -5 -3 -3 -1 -0 -0 -0 -0 -0 -0 -0 -0 -0 -0 -0 -0 -0 -0 -0 -0 -0 -0 -0 -0 -0 -0 -0 -0 -0 -0 -0 -0 -0 -0 -0 -0 -0 -0 -0 -0 -0 -0 -0 -0 -0 -0 -0 -0 -0 -0 -0 -0 -0 -0 -0 -0 -0 -0 -0 -0 -0 -0 -0 -0 -0 -0 -0 -0 -0 -0 -0 -0 -0 -0 -0 -0 -0 -0 -0
-2 -0 -0 -0 -0 -0 -1 -7 -6 -6 -4 -1 -0 -0 -0 -0 -0 -0 -0 -0 -0 -0 -0 -0 -0 -0 -0 -0 -0 -0 -0 -0 -0 -0 -0 -0 -0 -0 -0 -0 -0 -0 -0 -0 -0 -0 -0 -0 -0 -0 -0 -0 -0 -0 -0 -0 -0 -0 -0 -0 -0 -0 -0 -0 -0 -0 -0 -0 -0 -0 -0 -0 -0 -0 -0 -0 -0 -0 -0 -0 -0 -0 -0 -0 -0 -0
-0 -0 -1 -1 -1 -0 -0 -2 -0 -0 -5 -1 -0 -0 -0 -0 -0 -0 -1 -0 -0 -0 -0 -0 -0 -0 -0 -0 -0 -0 -0 -0 -0 -0 -0 -0 -0 -0 -0 -0 -0 -0 -0 -0 -0 -0 -0 -0 -0 -0 -0 -0 -0 -0 -0 -0 -0 -0 -0 -0 -0 -0 -0 -0 -0 -0 -0 -0 -0 -0 -0 -0 -0 -0 -0 -0 -0 -0 -0 -0 -0 -0 -0 -0 -0 -0
-0 -0 -1 -1 -1 -0 -0 -0 -1 -1 -5 -1 -1 -1 -0 -0 -0 -0 -0 -0 -0 -0 -0 -0 -0 -0 -0 -0 -0 -0 -0 -0 -0 -0 -0 -0 -0 -0 -0 -0 -0 -0 -0 -0 -0 -0 -0 -0 -0 -0 -0 -0 -0 -0 -0 -0 -0 -0 -0 -0 -0 -0 -0 -0 -0 -0 -0 -0 -0 -0 -0 -0 -0 -0 -0 -0 -0 -0 -0 -0 -0 -0 -0 -0 -0 -0
-0 -0 -0 -0 -0 -0 -0 -0 -0 -0 -0 -0 -0 -0 -0 -0 -0 -0 -0 -0 -0 -0 -0 -0 -0 -0 -0 -0 -0 -0 -0 -0 -0 -0 -0 -0 -0 -0 -0 -0 -0 -0 -0 -0 -0 -0 -0 -0 -0 -0 -0 -0 -0 -0 -0 -0 -0 -0 -0 -0 -0 -0 -0 -0 -0 -0 -0 -0 -0 -0 -0 -0 -0 -0 -0 -0 -0 -0 -0 -0 -0 -0 -0 -0 -0 -0
-0 -0 -0 -0 -0 -0 -0 -0 -0 -0 -0 -0 -0 -0 -0 -0 -0 -0 -0 -0 -0 -0 -0 -0 -0 -0 -0 -0 -0 -0 -0 -0 -0 -0 -0 -0 -0 -0 -0 -0 -0 -0 -0 -0 -0 -0 -0 -0 -0 -0 -0 -0 -0 -0 -0 -0 -0 -0 -0 -0 -0 -0 -0 -0 -0 -0 -0 -0 -0 -0 -0 -0 -0 -0 -0 -0 -0 -0 -0 -0 -0 -0 -0 -0 -0 -0
-0 -0 -0 -0 -0 -0 -0 -0 -0 -0 -0 -0 -0 -0 -0 -0 -0 -0 -0 -0 -0 -0 -0 -0 -0 -0 -0 -0 -0 -0 -0 -0 -0 -0 -0 -0 -0 -0 -0 -0 -0 -0 -0 -0 -0 -0 -0 -0 -0 -0 -0 -0 -0 -0 -0 -0 -0 -0 -0 -0 -0 -0 -0 -0 -0 -0 -0 -0 -0 -0 -0 -0 -0 -0 -0 -0 -0 -0 -0 -0 -0 -0 -0 -0 -0 -0
-0 -0 -0 -0 -0 -0 -0 -0 -0 -0 -0 -0 -0 -0 -0 -0 -0 -0 -0 -0 -0 -0 -0 -0 -0 -0 -0 -0 -0 -0 -0 -0 -0 -0 -0 -0 -0 -0 -0 -0 -0 -0 -0 -0 -0 -0 -0 -0 -0 -0 -0 -0 -0 -0 -0 -0 -0 -0 -0 -0 -0 -0 -0 -0 -0 -0 -0 -0 -0 -0 -0 -0 -0 -0 -0 -0 -0 -0 -0 -0 -0 -0 -0 -0 -0 -0
-0 -0 -0 -0 -0 -0 -1 -0 -0 -0 -0 -0 -0 -0 -0 -0 -0 -0 -0 -0 -0 -0 -0 -0 -0 -0 -0 -0 -0 -0 -0 -0 -0 -0 -0 -0 -0 -0 -0 -0 -0 -0 -0 -0 -0 -0 -0 -0 -0 -0 -0 -0 -0 -0 -0 -0 -0 -0 -0 -0 -0 -0 -0 -0 -0 -0 -0 -0 -0 -0 -0 -0 -0 -0 -0 -0 -0 -0 -0 -0 -0 -0 -0 -0 -0 -0
-0 -0 -0 -1 -1 -2 -0 -0 -0 -0 -0 -0 -1 -1 -4 -3 -1 -1 -0 -0 -0 -0 -0 -0 -0 -0 -0 -0 -0 -0 -0 -0 -0 -0 -0 -0 -0 -0 -0 -0 -0 -0 -0 -0 -0 -0 -0 -0 -0 -0 -0 -0 -0 -0 -0 -0 -0 -0 -0 -0 -0 -0 -0 -0 -0 -0 -0 -0 -0 -0 -0 -0 -0 -0 -0 -0 -0 -0 -0 -0 -0 -0 -0 -0 -0 -0
-0 -0 -1 -2 -2 -5 -1 -0 -0 -0 -0 -1 -2 -2 -4 -1 -0 -0 -0 -0 -0 -0 -0 -0 -0 -0 -0 -0 -0 -0 -0 -0 -0 -0 -0 -0 -0 -0 -0 -0 -0 -0 -0 -0 -0 -0 -0 -0 -0 -0 -0 -0 -0 -0 -0 -0 -0 -0 -0 -0 -0 -0 -0 -0 -0 -0 -0 -0 -0 -0 -0 -0 -0 -0 -0 -0 -0 -0 -0 -0 -0 -0 -0 -0 -0 -0
-0 -0 -0 -0 -0 -0 -0 -0 -0 -0 -0 -0 -2 -2 -0 -0 -0 -0 -0 -0 -0 -0 -0 -0 -0 -0 -0 -0 -0 -0 -0 -0 -0 -0 -0 -0 -0 -0 -0 -0 -0 -0 -0 -0 -0 -0 -0 -0 -0 -0 -0 -0 -0 -0 -0 -0 -0 -0 -0 -0 -0 -0 -0 -0 -0 -0 -0 -0 -0 -0 -0 -0 -0 -0 -0 -0 -0 -0 -0 -0 -0 -0 -0 -0 -0 -0
-0 -0 -0 -0 -0 -0 -0 -0 -0 -0 -0 -0 -0 -0 -0 -0 -0 -0 -0 -0 -0 -0 -0 -0 -0 -0 -0 -0 -0 -0 -0 -0 -0 -0 -0 -0 -0 -0 -0 -0 -0 -0 -0 -0 -0 -0 -0 -0 -0 -0 -0 -0 -0 -0 -0 -0 -0 -0 -0 -0 -0 -0 -0 -0 -0 -0 -0 -0 -0 -0 -0 -0 -0 -0 -0 -0 -0 -0 -0 -0 -0 -0 -0 -0 -0 -0
-0 -0 -0 -0 -0 -0 -0 -0 -0 -0 -0 -0 -0 -0 -0 -0 -0 -0 -0 -0 -0 -0 -0 -0 -0 -0 -0 -0 -0 -0 -0 -0 -0 -0 -0 -0 -0 -0 -0 -0 -0 -0 -0 -0 -0 -0 -0 -0 -0 -0 -0 -0 -0 -0 -0 -0 -0 -0 -0 -0 -0 -0 -0 -0 -0 -0 -0 -0 -0 -0 -0 -0 -0 -0 -0 -0 -0 -0 -0 -0 -0 -0 -0 -0 -0 -0
-0 -0 -0 -0 -0 -0 -0 -0 -0 -0 -0 -0 -0 -0 -0 -0 -0 -0 -0 -0 -0 -0 -0 -0 -0 -0 -0 -0 -0 -0 -0 -0 -0 -0 -0 -0 -0 -0 -0 -0 -0 -0 -0 -0 -0 -0 -0 -0 -0 -0 -0 -0 -0 -0 -0 -0 -0 -0 -0 -0 -0 -0 -0 -0 -0 -0 -0 -0 -0 -0 -0 -0 -0 -0 -0 -0 -0 -0 -0 -0 -0 -0 -0 -0 -0 -0
-0 -0 -0 -0 -0 -0 -0 -0 -0 -0 -0 -0 -0 -0 -0 -0 -0 -0 -0 -0 -0 -0 -0 -0 -0 -0 -0 -0 -0 -0 -0 -0 -0 -0 -0 -0 -0 -0 -0 -0 -0 -0 -0 -0 -0 -0 -0 -0 -0 -0 -0 -0 -0 -0 -0 -0 -0 -0 -0 -0 -0 -0 -0 -0 -0 -0 -0 -0 -0 -0 -0 -0 -0 -0 -0 -0 -0 -0 -0 -0 -0 -0 -0 -0 -0 -0
-0 -0 -0 -0 -0 -0 -0 -0 -0 -0 -0 -0 -0 -0 -0 -0 -0 -0 -0 -0 -0 -0 -0 -0 -0 -0 -0 -0 -0 -0 -0 -0 -0 -0 -0 -0 -0 -0 -0 -0 -0 -0 -0 -0 -0 -0 -0 -0 -0 -0 -0 -0 -0 -0 -0 -0 -0 -0 -0 -0 -0 -0 -0 -0 -0 -0 -0 -0 -0 -0 -0 -0 -0 -0 -0 -0 -0 -0 -0 -0 -0 -0 -0 -0 -0 -0
-0 -0 -0 -0 -0 -0 -0 -0 -0 -0 -0 -0 -0 -0 -0 -0 -0 -0 -0 -0 -0 -0 -0 -0 -0 -0 -0 -0 -0 -0 -0 -0 -0 -0 -0 -0 -0 -0 -0 -0 -0 -0 -0 -0 -0 -0 -0 -0 -0 -0 -0 -0 -0 -0 -0 -0 -0 -0 -0 -0 -0 -0 -0 -0 -0 -0 -0 -0 -0 -0 -0 -0 -0 -0 -0 -0 -0 -0 -0 -0 -0 -0 -0 -0 -0 -0
-0 -0 -0 -0 -0 -0 -0 -0 -0 -0 -0 -0 -0 -0 -0 -0 -0 -0 -0 -0 -0 -0 -0 -0 -0 -0 -0 -0 -0 -0 -0 -0 -0 -0 -0 -0 -0 -0 -0 -0 -0 -0 -0 -0 -0 -0 -0 -0 -0 -0 -0 -0 -0 -0 -0 -0 -0 -0 -0 -0 -0 -0 -0 -0 -0 -0 -0 -0 -0 -0 -0 -0 -0 -0 -0 -0 -0 -0 -0 -0 -0 -0 -0 -0 -0 -0
-0 -0 -0 -0 -0 -0 -0 -0 -0 -0 -0 -0 -0 -0 -0 -0 -0 -0 -0 -0 -0 -0 -0 -0 -0 -0 -0 -0 -0 -0 -0 -0 -0 -0 -0 -0 -0 -0 -0 -0 -0 -0 -0 -0 -0 -0 -0 -0 -0 -0 -0 -0 -0 -0 -0 -0 -0 -0 -0 -0 -0 -0 -0 -0 -0 -0 -0 -0 -0 -0 -0 -0 -0 -0 -0 -0 -0 -0 -0 -0 -0 -0 -0 -0 -0 -0
-0 -0 -0 -0 -0 -0 -0 -0 -0 -0 -0 -0 -0 -0 -0 -0 nan nan -0 -0 -0 -0 -0 -0 -0 -0 -0 -0 -0 -0 -0 -0 -0 -0 -0 -0 -0 -0 -0 -0 -0 -0 -0 -0 -0 -0 -0 -0 -0 -0 -0 -0 -0 -0 -0 -0 -0 -0 -0 -0 -0 -0 -0 -0 -0 -0 -0 -0 -0 -0 -0 -0 -0 -0 -0 -0 -0 -0 -0 -0 -0 -0 -0 -0 -0 -0
-0 -0 -0 -0 -0 -0 -0 -0 -0 -0 -0 -0 -0 -0 -0 -0 nan nan nan -0 -0 -0 -0 -0 -0 -0 -0 -0 -0 -0 -0 -0 -0 -0 -0 -0 -0 -0 -0 -0 -0 -0 -0 -0 -0 -0 -0 -0 -0 -0 -0 -0 -0 -0 -0 -0 -0 -0 -0 -0 -0 -0 -0 -0 -0 -0 -0 -0 -0 -0 -0 -0 -0 -0 -0 -0 -0 -0 -0 -0 -0 -0 -0 -0 -0 -0
-0 -0 -0 -0 -0 -0 -0 -0 -0 -0 -0 -0 -0 -0 -0 nan nan nan nan -0 -0 -0 -0 -0 -0 -0 -0 -0 -0 -0 -0 -0 -0 -0 -0 -0 -0 -0 -0 -0 -0 -0 -0 -0 -0 -0 -0 -0 -0 -0 -0 -0 -0 -0 -0 -0 -0 -0 -0 -0 -0 -0 -0 -0 -0 -0 -0 -0 -0 -0 -0 -0 -0 -0 -0 -0 -0 -0 -0 -0 -0 -0 -0 -0 -0 -0
-0 -0 -0 -0 -0 -0 -0 -0 -0 -0 -0 -0 -0 -0 -0 nan nan nan nan -2 -2 -2 -0 -0 -0 -0 -0 -0 -1 -1 -0 -0 -1 -1 -0 -0 -0 -0 -0 -0 -0 -0 -0 -0 -0 -0 -0 -0 -0 -0 -0 -0 -0 -0 -0 -0 -0 -0 -0 -0 -0 -0 -0 -0 -0 -0 -0 -0 -0 -0 -0 -0 -0 -0 -0 -0 -0 -0 -0 -0 -0 -0 -0 -0 -0 -0
-0 -0 -0 -0 -0 -0 -0 -0 -0 -0 -0 -0 -0 -0 -0 nan -1 -1 nan nan nan -0 -0 -0 -0 -0 -0 -0 -0 -0 -0 -1 -2 -2 -1 -0 -0 -0 -0 -0 -0 -0 -0 -0 -0 -0 -0 -0 -0 -0 -0 -0 -0 -0 -0 -0 -0 -0 -0 -0 -0 -0 -0 -0 -0 -0 -0 -0 -0 -0 -0 -0 -0 -0 -0 -0 -0 -0 -0 -0 -0 -0 -0 -0 -0 -0
-0 -0 -0 -0 -0 -0 -0 -0 -0 -0 -0 -0 -0 -0 -0 nan nan nan nan nan nan nan -0 -0 -0 -0 -0 -0 -0 -0 -0 -1 -0 -0 -2 -1 -0 -0 -0 -0 -0 -0 -0 -0 -0 -0 -0 -0 -0 -0 -0 -0 -0 -0 -0 -0 -0 -0 -0 -0 -0 -0 -0 -0 -0 -0 -0 -0 -0 -0 -0 -0 -0 -0 -0 -0 -0 -0 -0 -0 -0 -0 -0 -0 -0 nan
-0 -0 -0 -0 -0 -0 -0 -0 -0 -0 -0 -0 -0 -0 nan nan nan nan nan nan nan nan -0 -0 -0 -0 -0 -0 -0 -0 -0 -0 -0 -0 -1 -1 -0 -0 -0 -0 -0 -0 -0 -0 -0 -0 -0 -0 -0 -0 -0 -0 -0 -0 -0 -0 -0 -0 -0 -0 -0 -0 -0 -0 -0 -0 -0 -0 -0 -0 -0 -0 -0 -0 -0 -0 -0 -0 -0 nan nan nan -0 nan nan nan
-0 -0 -0 -0 -0 -0 -0 -0 -0 -0 -0 -0 -0 -0 nan nan nan nan nan nan nan nan nan -0 -0 -0 -0 -0 -0 -0 -0 -0 -0 -0 -0 -1 -0 -0 -0 -0 -0 -0 -0 -0 -0 -0 -0 -0 -0 -0 -0 -0 -0 -0 -0 -0 -0 -0 -0 -0 -0 -0 -0 -0 -0 -0 -0 -0 -0 -0 -0 -0 -0 -0 -0 -0 -0 -0 -0 -0 -0 nan nan nan nan nan
-0 -0 -0 -0 -0 -0 -0 -0 -0 -0 -0 -0 nan nan nan nan nan nan nan nan nan nan nan nan nan -0 -0 -0 -0 -0 -0 -0 -0 -0 -0 -0 -0 -0 -0 -0 -0 -0 -0 -0 -0 -0 -0 -0 -0 -0 -0 -0 -0 -0 -0 -0 -0 -0 -0 -0 -0 -0 -0 -0 -0 -0 -0 -0 -0 -0 -0 -0 -0 -0 -0 -0 -0 -0 -0 -0 -0 nan nan nan nan nan
-0 -0 -0 -0 -0 -0 -0 -0 -0 -0 -0 -0 -0 -0 nan nan nan nan nan nan nan nan nan nan nan nan -0 -0 -0 -0 -0 -0 -0 -0 -0 -0 -0 -0 -0 -0 -0 -0 -0 -0 -0 -0 -0 -0 -0 -0 -0 -0 -0 -0 -0 -0 -0 -0 -0 -0 -0 -0 -0 -0 -0 -0 -0 -0 -0 -0 -0 -0 -0 -0 -0 -0 -0 -0 -0 -0 -0 nan nan nan nan nan
-0 -0 -0 -0 -0 -0 -0 -0 -0 -0 -0 -0 -0 -0 nan nan -0 -0 nan nan nan nan nan nan nan nan nan nan -0 -0 -0 -0 -0 -0 -0 -0 -0 -0 -0 -0 -0 -0 -0 -0 -0 -0 -0 -0 -0 -0 -0 -0 -0 -0 -0 -0 -0 -0 -0 -0 -0 -0 -0 -0 -0 -0 -0 -0 -0 -0 -0 -0 -0 -0 -0 -0 -0 -0 -0 -0 -0 nan nan nan nan nan
-0 -0 -0 -0 -0 -0 -0 -0 -0 -0 -0 -0 -0 -0 -0 -0 nan nan nan nan nan nan nan nan nan nan nan nan nan nan -0 -0 -0 -0 -0 -0 -0 -0 -0 -0 -0 -0 -0 -0 -0 -0 -0 -0 -0 -0 -0 -0 -0 -0 -0 -0 -0 -0 -0 -0 -0 -0 -0 -0 -0 -0 -0 -0 -0 -0 -0 -0 -0 -0 -0 -0 -0 -0 -0 -0 -0 -0 nan nan nan -0
-0 -0 -0 -0 -0 -0 -0 -0 -0 -0 -0 -0 -0 -0 -0 -0 -0 -0 -0 nan nan nan nan nan nan nan nan nan nan nan nan -0 -0 -0 -0 -0 -0 -0 -0 -0 -0 -0 -0 -0 -0 -0 -0 -0 -0 -0 -0 -0 -0 -0 -0 -0 -0 -0 -0 -0 -0 -0 -0 -0 -0 -0 -0 -0 -0 -0 -0 -0 -0 -0 -0 -0 -0 -0 -0 -0 -0 -0 -0 -3 -3 -1
-0 -0 -0 -0 -0 -0 -0 -0 -0 -0 -0 -0 -0 -0 -0 -0 -0 -0 -0 nan nan nan nan nan nan nan nan nan nan nan nan -0 -0 -0 -0 -0 -0 -0 -0 -0 -0 -0 -0 -0 -0 -0 -0 -0 -0 -0 -0 -0 -0 -0 -0 -0 -0 -0 -0 -0 -0 -0 -0 -0 -0 -0 -0 -0 -0 -0 -0 -0 -0 -0 -0 -0 -0 -0 -0 -0 -0 -0 -2 -7 -7 -1
-0 -0 -0 -0 -0 -0 -0 -0 -0 -0 -0 -0 -0 -0 -0 -0 -0 -0 -0 nan nan nan nan nan nan nan nan nan nan nan -0 -0 -0 -0 -0 -0 -0 -0 -0 -0 -0 -0 -0 -0 -0 -0 -0 -0 -0 -0 -0 -0 -0 -0 -0 -0 -0 -0 -0 -0 -0 -0 -0 -0 -0 -0 -0 -0 -0 -0 -0 -0 -0 -0 -0 -0 -0 -0 -0 -0 -0 -0 -1 -2 -2 -0
-0 -0 -0 -0 -0 -0 -0 -0 -0 -0 -0 -0 -0 -0 -0 -0 -0 -0 nan nan nan nan nan nan nan nan nan nan nan nan nan nan nan nan -0 -0 -0 -0 -0 -0 -0 -0 -0 -0 -0 -0 -0 -0 -0 -0 -0 -0 -0 -0 -0 -0 -0 -0 -0 -0 -0 -0 -0 -0 -0 -0 -0 -0 -0 -0 -0 -0 -0 -0 -0 -0 -0 -0 -0 -0 -0 -0 -1 -8 -8 -2
-0 -0 -0 -0 -0 -0 -0 -0 -0 -0 -0 -0 -0 -0 -0 -0 -0 -0 nan nan nan nan nan nan nan nan nan nan nan nan nan nan -0 -0 nan -0 -0 -0 -0 -0 -0 -0 -0 -0 -0 -0 -0 -0 -0 -0 -0 -0 -0 -0 -0 -0 -0 -0 -0 -0 -0 -0 -0 -0 -0 -0 -0 -0 -0 -0 -0 -0 -0 -0 -0 -0 -0 -0 -0 -0 -0 -0 -0 -9 -9 -4
Wind_Speed
10 10 11 14 14 14 13 16 17 17 15 14 13 13 13 14 15 16 19 19 19 18 17 17 18 20 22 25 27 29 30 31 31 31 31 31 31 31 31 31 30 30 30 30 30 31 31 32 32 33 33 33 32 32 32 32 32 33 34 34 34 33 32 30 29 29 30 32 33 34 33 32 32 32 32 32 32 32 30 23 15 15 19 19 18 16
10 10 11 14 15 15 13 16 17 17 16 15 14 14 14 15 15 14 15 16 18 18 17 17 18 20 21 23 25 28 29 30 30 30 31 31 31 30 30 30 30 30 30 30 30 31 31 31 32 32 32 32 32 32 31 31 32 32 33 33 33 33 32 30 29 29 29 31 32 32 32 31 31 32 32 32 33 33 31 27 19 14 15 16 16 15
10 10 10 12 14 14 13 15 16 16 17 16 15 15 17 17 16 14 13 14 15 15 15 16 17 18 20 21 23 26 28 29 30 30 30 30 30 30 30 30 30 30 30 30 30 31 31 31 31 32 32 32 31 31 31 31 31 32 32 33 32 32 31 30 29 29 29 30 30 30 30 31 31 31 32 32 33 33 32 29 24 19 15 13 12 12
11 10 10 10 11 13 14 14 15 15 14 15 16 17 19 17 15 13 13 13 14 14 15 16 17 17 17 17 19 23 26 28 29 29 29 29 30 30 30 30 30 30 30 30 30 30 30 30 30 31 31 31 31 30 30 30 31 31 32 32 31 31 31 30 29 29 28 28 28 28 29 30 30 31 31 32 32 33 32 31 28 25 21 14 8 7
11 11 11 10 10 12 13 14 14 13 12 13 15 16 16 14 13 13 13 14 14 14 14 15 15 16 14 14 17 21 25 27 28 29 29 29 30 30 30 30 30 30 30 29 29 29 29 29 29 30 30 30 30 30 29 30 30 31 31 31 31 30 30 30 29 28 27 26 26 26 27 28 29 29 30 31 31 32 32 31 29 28 25 18 10 3
11 11 10 10 10 10 11 11 11 11 11 12 13 13 13 12 12 12 12 12 13 13 12 12 13 14 14 14 17 21 25 27 28 29 29 29 29 29 29 29 29 29 28 28 28 28 28 28 29 29 29 29 29 29 29 29 30 30 31 31 30 29 29 29 28 28 27 25 25 25 26 26 27 28 28 29 30 31 30 30 29 28 26 21 14 6
11 10 10 10 10 10 10 10 10 10 10 10 11 11 11 11 11 12 12 12 12 11 11 11 12 13 14 15 18 21 23 25 26 27 27 28 28 27 27 27 27 27 27 27 27 27 27 28 28 29 29 29 29 29 29 29 29 30 31 30 29 28 28 28 27 27 26 25 24 24 24 25 26 26 27 28 29 30 30 29 29 29 27 23 17 11
12 11 11 11 11 10 10 10 10 10 10 10 10 10 11 10 10 11 13 13 12 11 11 11 11 12 12 14 16 17 18 19 20 20 22 22 23 23 24 24 25 25 26 26 26 27 27 28 28 28 28 28 28 28 28 28 28 29 30 30 29 28 27 27 27 26 26 25 24 24 24 24 24 25 26 27 28 29 29 29 29 29 28 25 21 16
14 13 13 12 12 11 10 10 10 10 11 10 10 10 11 10 10 10 11 11 11 10 10 10 11 11 12 12 13 14 15 15 15 15 16 15 16 18 20 21 23 24 25 25 26 26 27 27 28 28 28 28 27 27 27 27 27 28 28 29 28 28 27 27 26 26 25 25 24 24 23 23 23 24 25 26 27 28 28 29 29 29 29 26 23 19
14 14 13 12 11 10 10 10 10 10 11 11 10 10 10 10 10 10 11 10 10 9 9 10 10 11 12 12 12 13 14 15 16 17 18 17 18 19 19 20 20 21 23 24 25 26 26 27 27 27 27 27 26 26 26 26 26 27 27 28 28 28 27 27 26 26 25 25 24 24 23 23 23 23 24 25 26 26 27 28 29 29 29 27 24 21
13 12 12 11 10 9 9 9 9 9 10 10 10 9 9 9 9 10 11 11 10 9 9 9 10 11 12 11 11 11 12 12 13 15 17 18 19 20 20 19 19 20 22 22 23 24 24 25 25 26 26 25 25 25 25 24 24 25 25 26 27 27 27 27 26 26 25 25 24 24 23 23 23 23 23 24 24 25 26 27 28 29 29 27 25 22
11 10 9 9 9 8 8 8 8 8 8 8 8 8 8 8 8 9 10 11 11 11 10 10 10 11 11 11 11 11 10 11 11 11 11 12 13 14 14 14 15 16 17 18 19 20 22 22 23 23 24 24 24 24 23 23 22 23 23 24 25 26 27 27 27 26 25 25 25 24 23 23 22 22 22 22 23 24 25 26 27 28 28 27 25 23
9 8 8 9 8 8 7 7 7 6 6 7 7 8 8 8 8 8 10 11 11 11 11 11 11 11 11 10 10 10 10 10 10 10 9 9 9 9 9 9 10 10 11 11 12 13 17 19 20 21 21 22 22 22 22 21 21 21 21 22 23 24 26 27 27 27 26 26 25 24 23 22 22 22 21 21 22 22 24 25 26 27 27 26 25 23
9 9 9 9 8 8 7 7 7 7 7 8 8 9 9 9 9 9 10 11 11 11 10 11 12 11 10 10 10 10 10 10 10 9 9 9 8 8 8 8 8 8 8 9 9 10 13 14 15 16 18 19 20 21 20 19 19 19 19 20 21 22 24 26 27 27 27 26 25 24 23 22 22 21 21 20 20 21 22 24 25 25 26 26 25 23
10 9 9 8 8 7 7 7 8 9 9 8 8 9 9 9 9 10 10 11 11 10 10 12 12 11 10 9 9 9 9 9 9 9 9 8 8 8 8 8 8 8 8 8 9 10 12 12 11 12 14 16 18 18 18 18 18 18 18 18 19 21 23 25 26 26 27 26 25 24 23 22 22 21 21 20 19 19 21 22 23 24 25 25 24 24
9 9 10 10 10 9 8 8 8 9 9 9 9 9 10 10 9 9 10 10 10 9 10 11 11 11 9 8 8 8 8 9 8 8 9 8 8 7 8 8 8 8 8 8 9 9 10 10 11 12 13 16 18 20 21 19 18 18 18 18 19 20 22 23 25 26 26 26 25 24 23 22 22 22 21 20 19 19 20 21 22 23 23 24 24 24
9 10 10 10 10 10 9 9 9 9 9 9 9 9 9 9 9 9 9 9 9 8 9 9 10 9 7 6 6 7 7 7 7 8 8 8 8 7 7 8 8 9 9 9 9 9 9 10 10 11 12 15 18 21 21 20 19 19 18 18 19 20 21 23 24 25 26 26 25 25 23 22 22 22 22 20 19 18 19 21 22 22 22 23 23 23
9 9 9 9 10 10 10 10 9 9 9 9 9 9 9 9 9 9 10 9 9 9 9 9 9 8 7 6 5 5 7 7 8 8 9 8 8 7 7 8 8 9 9 9 9 9 9 10 10 11 12 17 20 21 22 21 21 20 19 19 19 19 20 21 23 24 25 25 25 25 24 22 22 22 21 20 19 18 19 20 21 21 21 22 23 23
10 10 9 10 10 10 10 10 9 9 9 8 9 9 10 10 10 10 10 9 9 10 10 10 10 9 8 8 7 7 7 7 8 8 9 9 8 7 7 8 8 9 9 9 9 9 9 10 11 14 16 20 21 22 23 22 21 20 20 19 19 19 19 20 22 23 24 25 25 25 24 23 22 22 21 21 20 19 19 20 20 21 20 21 22 22
11 10 9 10 10 10 10 10 9 9 8 8 9 10 11 11 11 11 10 9 10 10 10 10 10 10 9 9 9 8 7 7 7 8 9 9 9 8 7 8 9 9 9 9 9 9 9 9 10 13 16 19 21 22 23 23 22 21 20 19 18 18 19 20 21 22 23 24 24 24 24 23 22 21 21 21 20 19 19 19 20 20 20 21 21 22
11 11 10 10 9 9 9 9 9 10 10 11 11 11 11 11 11 11 10 10 10 10 10 10 10 9 8 8 8 8 7 7 8 8 7 8 8 8 7 7 8 9 9 9 9 8 9 9 9 10 13 16 19 21 22 22 22 21 20 19 19 18 19 20 21 22 23 23 24 24 24 23 22 21 21 21 20 19 19 19 20 20 20 20 21 21
11 11 11 11 11 10 9 10 11 11 12 12 11 10 9 10 11 11 11 10 10 10 10 10 9 9 9 9 9 9 8 8 8 8 6 8 8 8 6 7 8 8 9 8 8 8 9 9 9 10 12 16 19 20 22 22 22 21 21 20 19 19 19 19 20 21 22 23 23 23 23 23 22 21 21 21 20 20 19 19 19 20 20 21 20 20
11 11 11 11 10 10 10 10 10 11 11 10 10 9 8 9 10 11 11 10 10 10 11 10 10 10 10 10 10 10 9 9 8 8 7 8 9 8 6 6 7 8 8 8 8 8 8 8 9 10 12 16 19 20 21 22 22 22 22 21 20 19 18 19 19 20 21 22 22 23 23 22 22 21 21 21 20 20 19 19 19 20 21 21 20 20
10 10 10 9 8 8 9 9 10 10 9 9 9 9 9 10 11 11 11 11 11 10 10 11 11 11 11 11 11 10 9 8 7 7 6 7 8 7 6 6 7 8 8 8 8 8 8 8 8 9 10 14 17 19 21 22 23 23 23 21 20 19 18 18 18 19 20 21 21 22 22 22 21 21 21 21 20 20 19 19 20 20 21 21 20 19
9 9 9 9 10 12 13 13 13 13 12 11 10 10 10 11 12 12 11 11 10 10 10 11 11 11 10 10 9 8 7 7 6 6 5 6 7 7 7 6 7 8 8 7 7 8 8 8 8 8 9 12 15 18 20 22 23 23 23 22 20 18 17 17 17 18 19 20 20 21 21 21 21 21 21 21 20 19 19 19 19 20 21 21 21 19
13 14 15 17 19 22 24 23 23 21 20 16 13 11 11 11 12 12 11 10 9 9 10 11 11 10 8 7 7 6 5 5 5 5 5 5 6 7 6 6 6 7 7 7 7 7 8 8 8 8 9 10 13 16 19 20 21 22 22 21 20 18 17 16 17 17 18 19 20 20 20 20 21 21 21 21 20 20 19 19 19 20 21 21 20 19
20 21 23 24 25 26 26 25 25 25 25 22 19 15 13 11 11 11 10 9 9 9 9 10 10 9 8 7 7 6 5 5 4 5 5 5 5 6 6 6 6 7 8 7 7 7 8 9 9 9 9 9 11 13 17 18 19 20 21 20 20 19 17 16 16 16 17 18 19 20 20 20 20 21 21 21 20 20 19 19 19 20 20 19 18 16
20 21 22 22 23 23 23 23 23 22 22 22 22 20 16 11 10 10 10 9 9 9 9 9 9 9 8 8 7 6 6 5 5 5 5 5 5 6 6 6 6 6 7 6 7 8 9 9 9 9 9 9 9 10 13 15 17 18 18 19 19 18 17 16 15 15 16 17 18 19 19 20 20 20 21 21 20 20 19 19 19 19 18 16 13 11
17 18 18 19 19 20 20 20 19 19 20 20 20 18 14 10 9 9 10 9 9 9 9 9 9 9 8 8 8 7 7 6 6 6 5 5 5 5 5 5 5 5 5 5 5 6 7 7 7 7 7 8 8 8 9 11 12 13 14 16 16 16 16 15 14 14 15 16 17 17 18 19 19 20 20 20 20 20 19 19 19 17 14 12 10 9
12 13 13 14 15 15 15 15 15 15 17 18 18 17 12 9 8 8 9 9 9 9 10 9 9 9 8 8 8 7 6 5 5 5 5 4 4 4 5 5 5 5 4 4 4 4 4 5 5 5 6 6 6 6 6 7 8 9 10 12 13 13 14 14 13 13 13 14 15 16 17 18 18 19 19 19 19 19 19 20 18 14 10 9 9 9
10 10 10 11 11 11 11 11 11 12 13 15 14 13 10 8 7 7 8 8 9 9 10 9 9 9 8 7 6 5 4 4 4 4 3 3 4 4 5 5 6 5 5 4 4 4 4 3 4 4 5 5 6 6 7 7 7 7 7 8 9 10 12 12 12 12 12 13 14 15 17 17 18 18 19 19 19 19 19 19 17 13 9 9 9 8
9 9 8 9 9 9 9 9 9 9 10 10 10 9 8 8 7 7 7 8 8 9 9 9 9 9 9 8 7 6 4 4 4 5 4 4 4 4 5 6 6 6 5 5 5 5 4 4 3 4 5 5 6 6 7 7 7 7 7 7 7 8 10 10 11 11 10 12 13 15 16 17 18 19 19 19 19 19 19 19 17 14 10 9 9 8
8 8 8 8 8 8 8 8 8 8 8 8 8 7 7 7 7 7 7 7 8 8 9 9 9 9 9 9 9 7 6 5 6 6 6 5 4 4 5 6 6 6 5 5 5 5 5 5 4 4 5 5 5 6 7 7 7 7 6 6 6 7 8 8 8 8 8 9 10 12 14 16 17 18 19 19 19 19 19 19 18 16 12 10 9 8
8 9 9 9 8 8 8 8 8 8 8 8 8 7 7 7 7 7 7 7 7 8 8 9 9 9 9 9 9 8 7 7 7 8 7 6 5 5 5 6 7 6 6 5 5 5 5 6 6 5 5 5 5 5 6 6 6 6 6 6 6 6 6 6 6 6 6 6 6 7 10 12 14 16 17 17 18 18 19 19 19 18 16 12 10 8
8 9 9 9 8 8 8 8 8 8 8 8 8 8 7 7 7 7 7 7 7 8 8 8 9 9 9 9 9 8 8 7 8 8 8 7 6 5 6 6 6 6 6 5 5 5 5 7 7 7 6 5 5 5 5 5 6 6 5 5 5 5 5 5 5 6 6 5 5 5 6 7 9 11 12 14 15 16 18 18 19 19 19 16 13 10
8 8 9 8 8 8 8 8 8 8 8 8 7 7 8 7 7 7 7 7 8 8 9 9 9 9 9 9 9 9 9 8 8 9 9 8 7 6 6 6 6 6 6 6 6 6 6 7 7 8 8 7 5 4 4 5 5 5 5 5 5 5 5 5 5 5 5 5 5 5 5 6 7 8 9 11 13 15 17 18 19 19 20 19 17 15
8 8 8 8 8 7 8 7 7 7 7 7 7 8 8 8 8 8 7 8 8 8 9 10 10 10 11 10 10 10 10 9 9 10 10 9 8 8 7 7 7 7 7 7 7 7 7 7 8 8 8 7 6 4 4 4 4 5 5 5 5 5 5 5 5 5 5 6 6 6 6 6 6 7 7 10 11 13 15 17 18 19 19 20 19 19
8 8 8 8 7 7 7 7 7 7 7 7 8 8 9 9 9 9 8 8 9 9 9 9 9 11 13 13 13 13 12 12 12 13 13 11 10 9 9 8 8 8 8 8 8 8 8 8 8 8 7 6 6 6 6 5 5 5 5 5 5 5 6 5 5 5 5 5 6 6 6 6 6 6 7 8 8 9 10 11 13 15 17 18 18 19
7 8 8 8 8 7 7 7 7 7 7 8 8 8 9 9 9 9 8 8 9 9 10 10 10 10 12 14 15 15 15 15 15 14 14 13 11 10 9 9 9 9 8 8 8 8 8 8 8 8 7 6 7 7 7 6 6 6 5 5 6 6 6 6 5 5 5 5 5 6 6 6 6 6 7 7 7 8 8 8 9 11 12 12 13 15
7 8 8 8 8 7 7 7 7 7 7 8 9 9 9 9 8 8 8 8 8 9 10 11 10 10 10 11 12 13 14 13 13 13 13 12 11 10 9 9 9 9 8 8 8 8 9 9 9 9 9 7 7 7 6 6 6 6 6 5 5 5 5 5 5 5 5 5 5 5 5 5 5 6 7 7 8 8 8 8 8 8 9 9 9 9
7 8 8 8 8 8 8 8 7 7 8 8 8 8 8 7 7 7 8 8 8 8 8 9 9 9 9 9 10 11 12 12 12 12 11 12 12 11 10 9 9 9 9 9 9 9 9 9 9 9 9 9 9 8 8 8 8 8 8 7 6 6 6 6 6 6 6 5 5 5 5 5 6 6 7 7 8 8 8 8 8 7 8 8 8 8
8 8 8 7 7 7 7 7 8 8 8 8 8 7 7 7 7 7 8 8 8 7 7 7 8 8 8 8 9 9 10 10 11 11 11 12 13 12 11 10 9 9 9 9 9 9 9 9 10 10 9 8 8 8 8 8 8 8 8 8 8 7 7 7 6 6 6 5 5 5 6 5 5 6 6 7 7 8 8 9 9 9 8 7 7 8
7 7 8 8 8 8 8 8 8 7 7 7 7 7 7 7 7 8 8 8 8 8 8 8 8 8 8 8 8 8 8 9 10 10 11 11 12 12 12 11 11 9 9 9 9 9 10 10 10 9 9 8 8 9 9 8 8 8 8 8 7 6 5 4 4 5 5 5 5 5 5 5 5 5 5 6 7 7 8 9 10 10 9 8 8 8
7 7 7 7 7 7 7 7 6 6 7 7 7 7 7 7 8 8 8 8 8 8 8 8 8 8 8 8 8 8 7 7 8 9 10 11 11 11 12 12 12 11 10 9 9 9 9 9 9 9 8 8 8 9 9 8 8 7 7 7 7 7 6 5 5 6 6 6 5 5 5 4 4 4 5 5 6 7 8 8 9 9 9 8 8 8
7 7 7 7 7 7 7 7 7 7 7 7 7 7 7 7 8 8 8 8 8 8 8 8 7 7 7 8 8 7 7 7 6 7 7 9 11 12 12 11 11 11 10 10 9 9 8 9 8 8 7 7 8 9 9 9 8 8 8 8 8 8 8 7 7 7 6 6 6 6 5 5 5 4 4 5 6 7 7 8 8 9 9 9 8 8
7 7 7 7 7 7 8 8 7 7 7 7 7 7 7 7 7 7 8 8 8 8 8 8 7 7 8 8 8 7 7 7 6 6 6 6 7 8 9 9 9 9 9 9 10 10 9 9 8 8 7 8 8 9 9 9 8 8 7 7 7 7 8 7 7 7 7 7 7 6 6 6 6 5 5 5 6 6 7 8 8 9 9 9 9 9
7 7 7 7 7 7 7 7 7 7 7 7 7 7 7 7 7 7 8 8 8 8 8 8 8 8 9 8 8 8 8 8 7 7 6 6 6 7 7 8 8 9 9 9 9 10 10 10 10 9 8 8 8 9 9 8 8 8 8 7 7 7 7 7 7 7 7 7 7 7 7 6 6 5 5 5 5 6 7 7 8 9 9 9 8 9
7 7 7 7 7 7 7 7 7 7 7 7 7 7 7 7 7 8 8 8 8 8 8 8 8 8 9 9 9 8 9 8 8 7 7 6 6 6 6 6 7 7 8 9 10 10 11 11 12 11 10 9 9 9 9 8 8 8 7 7 7 7 7 7 7 6 6 7 7 7 7 6 5 5 5 5 5 5 6 7 8 9 9 9 9 9
7 7 8 7 7 7 7 7 7 7 7 8 7 7 7 8 8 8 8 8 8 7 7 8 8 9 9 9 9 9 9 9 8 7 7 6 6 6 6 6 6 6 7 8 9 9 10 11 12 13 12 11 10 10 9 9 8 8 7 7 7 7 7 7 7 6 6 7 8 8 7 6 6 5 5 5 6 6 7 8 8 9 9 9 9 9
7 7 8 8 8 8 8 8 8 8 8 8 8 8 7 7 7 7 7 7 7 7 7 8 8 9 9 9 9 9 9 8 8 7 7 6 6 6 6 6 6 6 7 6 7 7 7 8 10 12 14 15 14 12 10 9 9 8 8 7 7 7 7 7 6 6 6 7 7 8 8 7 6 6 5 6 7 7 7 8 9 9 9 9 9 10
7 7 7 7 8 8 8 8 8 8 8 8 8 8 8 7 7 7 7 7 7 7 8 8 8 9 9 9 9 9 9 9 8 8 7 7 6 6 6 6 6 6 6 6 5 5 4 5 6 8 11 16 17 16 12 10 9 8 8 8 7 7 7 7 7 6 7 7 7 7 8 8 7 7 6 6 6 7 7 8 9 9 10 9 9 10
Wind_Direction
281 282 282 281 280 279 277 275 276 276 275 274 274 274 275 274 273 272 272 271 271 270 270 270 271 272 273 274 275 276 276 277 278 279 280 281 282 283 283 283 284 284 284 285 285 285 285 285 285 285 286 286 287 287 288 289 289 290 290 291 292 293 295 297 299 299 299 298 299 301 306 312 316 319 322 327 331 333 332 320 288 242 223 221 219 215
279 280 280 280 279 278 277 275 274 274 275 275 275 276 276 276 276 275 273 272 271 271 271 271 272 272 273 274 275 276 276 277 278 279 279 280 281 282 283 283 284 284 284 285 285 285 285 285 285 285 285 285 286 286 287 287 288 288 288 289 291 292 294 295 296 295 294 295 298 303 308 314 317 319 322 326 329 331 331 327 311 277 246 234 224 213
281 280 279 279 278 277 277 277 276 275 275 276 277 277 278 278 277 275 274 273 271 270 270 271 272 273 273 274 275 275 275 276 277 278 278 279 280 281 282 283 284 285 285 285 285 285 285 284 284 284 284 284 285 285 286 286 286 287 287 288 289 291 292 293 292 292 292 294 299 304 309 313 315 317 319 322 325 327 328 328 323 313 293 265 236 211
281 280 280 279 278 276 276 278 278 277 276 276 277 277 277 276 275 274 273 273 272 272 271 271 271 272 273 274 274 274 274 275 275 276 277 278 280 281 283 284 285 286 286 286 285 285 284 283 283 282 282 283 283 284 285 285 285 286 286 286 287 288 289 290 291 291 292 297 301 306 309 312 313 315 316 318 320 321 323 325 325 324 316 300 269 213
278 278 279 279 278 276 276 277 278 278 278 277 277 276 276 274 273 273 272 272 272 271 271 270 270 270 271 271 271 272 273 274 275 276 277 278 280 282 283 284 285 285 286 285 284 283 282 282 281 281 281 282 282 283 284 284 284 284 284 285 286 287 288 290 291 294 296 300 303 306 309 311 312 313 314 314 315 316 318 321 322 323 320 314 305 264
276 276 278 277 277 278 279 278 278 278 278 276 275 274 272 271 270 270 270 270 269 269 269 269 268 268 268 269 270 272 273 274 275 276 277 279 280 282 283 283 283 284 283 283 282 282 281 281 280 280 281 281 282 282 283 283 283 283 283 283 284 286 288 291 293 295 298 300 303 305 307 309 310 311 311 310 310 311 313 317 319 320 319 318 320 334
276 275 276 276 276 276 277 277 276 276 275 275 274 272 270 269 269 268 268 268 269 270 270 269 269 269 268 269 270 272 273 274 275 276 277 279 279 280 281 281 281 281 281 281 281 280 281 280 280 280 281 281 281 281 281 282 282 282 282 283 285 287 289 291 293 295 297 299 301 303 305 306 307 307 307 306 306 307 309 313 315 317 318 320 325 340
276 275 273 273 274 274 273 272 272 273 272 273 274 274 273 272 270 270 270 270 270 271 271 271 270 269 268 268 269 270 272 273 274 275 276 277 277 277 278 279 280 280 281 281 281 281 281 281 281 281 280 280 280 280 280 280 280 281 282 283 285 287 289 290 292 293 294 295 297 299 302 303 304 303 303 302 303 304 306 310 312 315 317 320 326 338
274 276 274 273 274 276 277 274 271 270 270 271 272 273 275 275 275 274 273 272 270 268 268 269 269 269 268 268 269 269 270 271 272 272 273 273 274 275 278 280 281 282 282 281 281 281 281 281 281 280 280 280 279 279 279 279 280 281 282 284 286 287 287 287 288 289 290 291 293 295 297 299 301 301 300 300 301 302 304 307 311 314 317 320 326 335
270 273 275 274 273 273 275 275 273 270 268 268 269 270 272 275 276 276 275 271 268 265 263 265 269 273 274 272 271 271 271 272 272 272 272 273 275 277 280 282 283 282 282 281 281 281 280 280 280 280 279 279 279 278 278 279 280 281 283 284 285 285 285 285 285 286 287 288 289 290 292 295 296 298 298 299 300 301 303 306 309 312 316 320 325 332
269 270 272 272 271 268 267 270 273 273 269 267 265 263 262 265 269 272 274 273 273 272 272 274 277 280 281 280 277 275 274 273 273 272 272 276 278 281 282 282 282 281 280 279 279 279 278 278 278 278 278 278 278 278 278 278 279 280 282 284 285 285 285 285 285 285 285 285 286 287 289 290 292 293 295 297 299 301 303 305 308 311 314 319 323 328
269 270 270 271 272 271 269 269 269 268 265 264 264 264 262 260 263 269 275 279 282 285 286 286 284 283 282 282 281 278 276 274 274 274 275 277 280 281 282 281 279 278 278 277 276 276 276 276 276 276 277 277 277 277 277 278 279 280 281 283 284 285 285 285 285 285 285 284 285 285 286 287 289 291 292 295 298 300 302 304 306 309 313 316 320 323
269 270 272 273 273 271 269 267 266 264 264 268 275 280 281 279 278 279 280 282 285 288 289 288 286 283 279 278 278 278 276 276 275 276 277 278 280 280 280 278 277 276 276 276 275 274 274 275 276 276 276 276 276 276 277 277 278 279 281 282 284 285 285 286 286 286 285 285 285 285 286 287 288 289 291 293 296 298 300 302 304 306 310 314 317 319
272 271 269 267 265 263 263 267 273 279 283 286 287 289 290 291 289 287 283 283 284 286 287 287 286 284 280 277 275 275 275 276 276 276 276 276 276 276 276 275 274 274 274 275 274 274 275 276 277 277 276 276 276 276 276 277 278 278 279 281 282 283 284 285 286 286 286 286 287 287 288 288 289 289 289 291 293 295 297 298 300 303 307 310 313 315
277 275 273 270 270 273 278 285 290 292 292 292 292 291 290 290 288 286 284 285 286 288 288 286 284 282 280 278 276 275 274 274 275 275 275 273 272 271 272 272 273 272 272 273 273 274 276 276 276 276 276 275 275 274 275 276 276 277 278 279 280 281 282 284 285 286 286 287 288 288 290 290 290 290 289 290 291 292 293 295 297 300 304 307 309 311
280 280 282 286 289 291 294 296 295 294 293 293 293 293 293 291 289 288 287 288 289 289 288 287 285 284 281 278 277 276 274 274 274 273 273 272 270 269 270 272 273 273 272 272 273 275 276 275 274 274 274 274 274 275 275 276 276 276 277 277 278 279 280 282 283 285 286 287 288 289 289 290 290 290 290 289 290 290 290 292 294 298 302 304 306 307
281 283 287 291 293 295 296 295 294 294 295 295 295 293 291 290 289 288 287 287 288 288 286 286 287 288 287 284 280 276 275 274 273 272 273 272 271 270 270 272 273 273 273 273 273 274 275 274 273 273 274 274 275 275 276 276 276 276 276 277 277 278 279 281 282 284 285 286 287 288 289 289 289 289 289 290 290 290 290 291 293 296 299 301 302 303
283 287 292 294 295 296 297 297 297 297 297 296 295 293 290 288 287 286 285 285 285 285 285 285 284 283 286 287 284 280 279 277 276 276 275 274 274 273 271 270 270 271 272 271 271 271 271 271 270 270 272 274 275 275 276 276 276 276 276 276 276 277 278 280 281 283 284 285 286 287 287 288 288 288 289 290 290 290 290 290 292 294 297 298 298 298
288 292 295 295 296 296 296 296 296 296 297 297 296 295 293 290 287 286 284 284 283 282 282 281 279 277 278 280 282 283 283 281 279 278 277 277 276 275 272 269 268 268 269 269 269 269 268 268 267 268 270 272 274 274 275 275 275 275 275 275 276 276 277 279 280 281 282 284 285 285 286 287 287 288 288 289 289 289 289 289 291 292 294 294 294 294
291 292 293 295 295 293 290 289 291 294 297 296 296 294 292 291 289 288 286 283 281 278 276 275 274 273 274 276 279 282 285 282 279 277 277 277 276 275 272 270 269 269 270 270 270 270 270 270 270 270 270 271 272 273 274 274 274 274 273 274 274 275 276 277 278 279 280 281 282 283 284 284 285 286 286 287 288 288 287 288 289 290 291 290 289 289
288 288 288 290 289 288 286 288 291 294 295 295 294 292 291 291 291 289 287 284 281 279 276 274 274 276 278 280 282 284 286 283 280 279 279 278 276 275 273 272 272 272 271 272 272 272 272 272 271 270 269 270 270 271 272 273 273 273 273 274 274 275 276 276 276 276 277 278 278 279 281 281 282 283 283 284 285 285 285 286 288 288 288 286 285 284
282 283 284 283 282 280 282 287 290 292 293 292 292 291 292 293 293 292 291 290 288 286 285 284 284 285 286 285 285 284 284 280 278 278 280 278 276 275 275 274 273 272 272 273 274 273 273 272 271 270 270 270 270 271 272 273 274 274 274 274 274 274 274 274 273 273 273 274 275 276 277 278 278 279 280 280 281 282 283 284 285 286 286 284 282 280
274 276 279 278 277 277 281 285 288 289 289 288 287 288 292 294 295 295 297 296 294 292 290 289 288 286 284 282 281 280 277 273 272 273 275 275 276 276 277 276 274 273 273 275 275 275 274 273 272 271 272 271 271 272 273 274 275 276 276 275 274 273 271 270 269 268 268 269 270 271 273 274 275 275 276 276 277 278 280 281 283 283 283 282 280 278
267 270 273 274 274 276 279 282 284 286 287 287 288 290 292 293 294 294 293 292 290 288 287 285 283 280 276 275 275 274 271 267 265 265 267 271 275 277 279 279 277 276 275 276 277 277 275 273 272 271 272 271 272 273 274 275 276 276 276 275 273 271 268 265 264 263 263 264 266 267 268 270 271 271 272 272 273 274 275 278 279 280 281 281 280 279
274 276 277 277 278 280 282 284 287 290 293 294 295 297 297 297 295 293 289 286 284 282 281 279 278 276 276 275 274 272 270 265 261 260 263 270 274 277 279 280 279 279 279 279 279 279 277 275 274 273 273 273 273 273 274 275 275 276 276 275 273 270 266 263 261 260 260 261 262 263 265 266 267 268 269 269 269 270 271 273 275 277 279 280 281 281
285 283 283 284 286 287 290 291 294 296 297 298 299 301 302 301 298 294 290 286 284 284 283 281 280 279 281 281 279 278 278 273 267 263 264 272 277 279 279 279 279 279 281 281 280 279 279 278 277 276 276 275 275 274 274 274 274 275 275 275 274 272 268 264 261 259 258 259 260 261 262 263 264 265 266 266 266 267 267 269 271 274 276 279 281 281
285 284 284 286 288 291 292 294 295 296 297 297 299 301 303 303 300 296 292 292 293 292 289 287 286 286 286 285 284 285 287 283 276 271 270 274 276 278 279 279 279 280 282 282 282 281 281 280 279 277 276 275 274 273 272 272 273 275 276 276 276 274 271 266 261 258 256 257 257 258 259 260 261 262 263 263 263 264 264 266 268 271 274 277 279 280
281 282 283 286 288 290 291 292 293 294 296 297 299 300 302 302 300 297 296 299 299 297 291 288 288 288 288 286 286 286 286 283 279 276 273 272 272 274 278 281 281 282 283 284 283 281 279 276 274 272 269 268 268 268 269 271 273 275 276 277 277 276 273 268 263 258 255 254 255 255 256 257 257 258 259 259 260 261 261 262 265 267 271 273 274 275
278 281 283 286 288 290 291 292 293 294 295 295 296 298 299 297 295 294 295 298 296 291 285 284 283 284 285 285 285 283 280 276 273 271 268 266 267 271 277 280 280 281 284 285 283 279 273 269 266 264 263 264 265 267 270 272 274 275 276 277 276 276 274 270 265 260 256 255 255 256 256 256 256 256 256 256 257 258 258 259 261 264 267 267 268 268
289 291 291 291 291 292 292 292 292 292 292 292 293 293 293 289 285 285 288 290 288 284 281 281 280 280 282 284 283 280 274 270 268 268 266 265 267 272 278 279 279 280 284 286 286 281 275 270 268 268 271 274 276 278 280 279 278 278 278 277 277 276 274 271 267 262 258 257 256 257 258 257 257 256 255 255 255 255 255 256 256 258 259 259 260 261
302 300 297 295 295 294 294 293 292 290 290 290 290 290 287 281 278 278 281 283 283 283 282 283 282 281 282 282 282 280 277 278 282 286 282 274 274 277 282 282 282 283 284 285 288 290 290 284 281 282 287 289 289 287 285 283 281 279 279 280 279 278 275 272 268 264 259 256 255 255 256 256 256 256 255 254 254 253 253 252 252 252 252 253 254 254
301 298 295 295 295 295 294 293 292 291 290 290 288 285 281 278 276 275 278 280 282 283 283 283 283 281 279 278 277 278 281 286 293 294 289 281 277 278 280 280 281 281 280 277 279 284 290 291 290 290 291 289 287 284 281 279 278 277 277 278 278 277 275 273 269 265 258 253 250 249 250 251 251 252 252 252 252 251 250 249 248 248 247 248 249 250
296 295 294 294 294 293 292 292 292 293 292 292 290 288 285 281 279 277 278 280 281 281 282 282 282 281 279 277 276 275 277 281 285 286 283 278 276 276 276 276 277 277 278 273 272 273 276 280 284 285 283 280 278 276 275 273 272 272 272 272 274 275 274 273 270 266 258 251 246 243 243 245 246 246 248 248 248 249 249 248 246 245 244 245 247 248
295 294 294 293 293 292 291 292 293 294 294 294 294 293 291 287 284 282 281 281 279 278 278 279 280 280 280 279 277 276 275 277 281 283 281 276 273 275 276 275 275 277 278 275 272 270 269 273 277 280 281 276 274 272 272 271 270 269 267 267 268 271 273 273 272 270 266 257 249 243 240 241 241 241 242 243 244 244 245 245 244 243 242 243 245 247
295 295 294 293 293 293 293 295 296 296 296 297 297 297 295 291 287 284 281 280 278 277 276 275 275 276 277 278 278 277 277 279 282 284 283 277 276 277 277 274 274 276 278 276 275 274 273 275 277 280 283 282 279 275 272 272 270 269 266 264 264 265 266 267 270 272 272 267 260 252 246 244 240 238 238 238 238 239 240 241 241 241 240 240 242 244
296 295 294 295 295 296 296 297 298 298 298 299 300 299 297 293 289 285 282 280 279 279 277 275 273 272 271 272 274 276 278 280 283 283 282 279 278 278 277 275 275 276 276 276 276 276 277 279 280 281 282 282 281 279 274 274 275 275 272 268 266 263 262 262 263 265 268 266 263 259 254 253 251 247 243 239 237 236 236 236 237 238 238 238 239 240
294 294 295 297 297 298 297 298 299 299 300 301 301 300 298 294 291 287 284 281 280 279 279 277 274 270 267 267 268 271 275 278 279 279 277 277 276 275 274 274 274 273 272 273 274 276 278 280 281 280 279 278 279 281 282 282 282 279 277 276 275 273 270 266 263 263 263 262 262 260 258 258 260 261 260 250 244 239 235 234 234 234 235 236 237 238
294 295 296 298 299 300 299 299 299 300 301 302 302 301 299 295 291 288 285 281 278 277 277 276 273 270 267 266 265 265 267 269 270 270 269 268 267 266 267 269 269 267 265 267 270 272 275 277 278 279 278 277 278 280 284 286 285 283 282 284 283 282 278 273 268 264 261 260 260 260 259 258 259 261 264 260 254 246 237 230 228 228 230 231 233 235
294 295 297 299 301 300 299 298 299 300 301 301 300 299 297 294 291 287 284 280 278 275 274 274 273 271 268 265 264 263 263 263 263 262 261 259 258 259 260 263 264 263 261 261 261 264 266 269 272 275 278 280 280 281 283 284 285 288 291 290 286 280 276 275 273 269 266 265 263 262 261 259 256 255 255 255 254 249 242 232 223 218 219 222 226 229
293 294 296 299 300 298 297 296 297 298 299 299 298 297 297 295 293 290 285 282 279 277 276 275 274 272 269 267 265 264 264 262 261 259 257 254 252 253 256 258 261 263 261 258 256 255 256 259 263 267 270 275 279 281 282 282 284 288 292 291 286 281 281 284 285 282 277 273 269 266 264 262 258 254 251 249 249 248 246 239 227 217 210 212 215 218
294 294 296 297 297 296 294 294 295 296 297 297 298 298 298 298 298 297 294 290 287 284 282 281 280 278 275 272 269 268 267 266 264 262 259 256 253 253 255 257 260 262 262 260 256 253 251 255 258 261 264 268 273 277 278 279 281 283 284 282 282 284 288 287 285 281 277 272 268 265 264 262 259 257 254 251 250 250 250 248 240 228 213 213 213 214
292 292 294 294 294 293 292 291 291 293 294 295 296 298 299 300 301 301 301 300 298 296 294 293 292 290 288 283 279 274 272 270 268 266 264 260 258 256 256 257 259 261 262 261 259 256 254 254 257 259 261 264 269 272 273 274 275 276 275 277 281 284 284 280 276 273 271 268 264 261 259 258 256 255 254 254 253 253 253 253 249 241 227 218 216 217
287 288 289 290 290 290 290 289 290 291 293 295 295 296 297 299 300 301 301 300 300 301 300 299 297 295 294 291 287 283 277 271 269 268 267 264 261 259 257 256 257 257 258 260 260 259 257 255 255 256 258 261 263 266 270 271 272 271 270 273 277 281 282 280 279 278 274 268 263 257 253 253 254 255 255 254 255 254 253 253 251 247 238 226 219 218
283 283 284 286 287 288 289 288 289 291 293 293 294 295 296 298 299 299 299 298 299 300 301 300 299 297 294 292 291 290 288 282 276 272 270 268 266 263 261 258 255 252 251 253 257 260 260 257 255 255 255 256 257 259 262 265 267 267 266 267 268 269 270 278 285 286 283 277 272 266 260 261 263 265 264 258 253 251 249 249 247 245 239 232 224 220
280 281 283 286 288 291 292 291 292 292 293 292 293 294 296 298 298 298 297 297 299 300 302 302 301 299 296 294 295 296 295 293 288 281 274 271 270 270 268 265 260 255 250 248 249 253 257 258 258 257 255 252 252 253 256 259 262 262 262 260 260 261 263 269 275 279 281 282 281 281 279 280 279 276 271 263 256 250 247 246 246 244 240 232 225 220
282 285 287 290 292 294 295 295 294 293 292 292 292 294 297 298 297 297 296 297 299 301 302 302 301 298 296 297 298 299 299 297 294 290 284 279 275 272 271 269 266 262 256 250 248 247 249 253 257 259 259 255 252 251 251 253 256 257 257 255 255 256 258 261 263 265 268 272 276 279 282 284 282 278 272 270 266 261 254 249 246 245 242 235 228 223
283 285 288 290 292 293 294 295 295 294 293 294 295 297 298 298 298 297 297 299 300 301 302 301 300 297 296 298 300 301 301 301 299 296 293 288 282 277 274 271 268 266 263 258 253 249 247 247 249 251 253 254 254 253 250 249 250 251 252 251 251 251 253 252 252 252 254 258 262 266 271 274 273 271 268 269 271 269 262 254 249 247 245 241 235 229
281 283 285 287 290 292 294 295 296 295 295 297 299 300 301 300 300 300 299 300 300 301 301 301 300 299 298 299 299 300 300 300 299 297 295 292 288 284 280 278 275 272 269 266 262 258 253 248 245 244 245 248 252 254 253 250 248 247 248 247 246 247 248 248 246 244 244 247 249 250 253 256 258 259 260 259 258 257 256 251 246 243 242 242 239 235
280 281 283 284 287 289 292 294 296 297 297 300 301 303 303 302 302 301 300 300 300 299 299 299 300 300 299 299 299 300 301 300 298 296 295 292 290 287 286 284 283 281 278 273 268 264 259 252 246 241 239 241 245 249 252 250 248 246 245 243 242 243 245 245 243 240 238 240 240 240 239 242 246 249 253 248 243 241 243 243 241 239 237 238 238 236
277 278 280 282 284 286 289 292 294 296 297 299 301 303 304 304 303 302 300 299 298 297 297 297 298 298 299 299 300 301 302 301 300 299 297 294 292 290 287 286 285 284 281 277 271 266 262 255 247 240 234 233 235 239 246 246 245 244 243 241 239 239 242 243 240 237 234 235 234 232 230 233 235 238 240 240 238 237 236 238 237 236 233 234 236 237
275 275 277 279 281 284 286 289 291 293 295 298 300 301 303 303 303 302 301 299 298 298 297 297 297 297 298 299 301 302 303 302 302 301 299 297 294 291 287 285 284 283 282 281 278 273 268 263 255 245 234 228 226 227 234 237 239 240 239 238 236 236 238 239 238 235 232 232 230 228 225 225 226 227 229 233 234 233 232 233 232 231 228 229 232 236